Bryce, UT

2:07 AM MDT on August 24, 2016 (GMT -0600)
Bryce Canyon

Weather History for KBCE - March, 2014

Change the Weather History Date:

Monday, March 3, 2014

  Actual Average Record
Temperature  
Mean Temperature 37 °F -  
Max Temperature 48 °F 39 °F 57 °F (2016)
Min Temperature 26 °F 15 °F -6 °F (1965)
Degree Days  
Heating Degree Days 28    
Moisture  
Dew Point 26 °F    
Average Humidity 73    
Maximum Humidity 96    
Minimum Humidity 41    
Precipitation  
Precipitation 0.00 in - - ()
Sea Level Pressure  
Sea Level Pressure 30.02 in    
Wind  
Wind Speed 6 mph (WSW)    
Max Wind Speed 13 mph    
Max Gust Speed -    
Visibility 10 miles    
Events      
Averages and records for this station are not official NWS values.
T = Trace of Precipitation, MM = Missing Value Source: NWS Daily Summary

Daily Weather History Graph

Daily Weather History Graph

Search for Another Location

Airport or City:

Trip Planner

Search our weather history database for the weather conditions in past years. The results will help you decide how hot, cold, wet, or windy it might be!

Date:

Astronomy

Mar. 03, 2014 Rise Set
Actual Time 6:57 AM MST 6:24 PM MST
Civil Twilight 6:30 AM MST 6:50 PM MST
Nautical Twilight 6:00 AM MST 7:20 PM MST
Astronomical Twilight 5:30 AM MST 7:51 PM MST
Moon 8:11 AM MST (3/3) 9:27 PM MST (3/3)
Length of Visible Light 12h 19m
Length of Day
11h 27m
Waxing Crescent, 8% of the Moon is Illuminated
Mar 3
Waxing Crescent
Mar 8
First Quarter
Mar 16
Full
Mar 23
Last Quarter
Mar 30
New

Hourly Weather History & Observations

Time (MST) Temp. Windchill Dew Point Humidity Pressure Visibility Wind Dir Wind Speed Gust Speed Precip Events Conditions
12:53 AM 28.9 °F 22.8 °F 25.0 °F 85% 30.03 in 10.0 mi West 5.8 mph - N/A   Clear
1:53 AM 28.0 °F 21.7 °F 26.1 °F 92% 30.02 in 10.0 mi NNW 5.8 mph - N/A   Mostly Cloudy
2:53 AM 28.9 °F 21.9 °F 25.0 °F 85% 30.00 in 10.0 mi West 6.9 mph - N/A   Clear
3:53 AM 26.1 °F 20.5 °F 24.1 °F 92% 30.01 in 10.0 mi WNW 4.6 mph - N/A   Clear
4:53 AM 26.1 °F 21.9 °F 24.1 °F 92% 30.01 in 10.0 mi West 3.5 mph - N/A   Clear
5:53 AM 28.0 °F 20.0 °F 25.0 °F 88% 30.02 in 10.0 mi WNW 8.1 mph - N/A   Clear
6:53 AM 26.1 °F 17.6 °F 23.0 °F 88% 30.06 in 10.0 mi West 8.1 mph - N/A   Clear
7:53 AM 30.0 °F 25.2 °F 27.0 °F 88% 30.07 in 10.0 mi West 4.6 mph - N/A   Clear
8:53 AM 37.0 °F 33.3 °F 26.1 °F 65% 30.05 in 10.0 mi North 4.6 mph - N/A   Clear
9:53 AM 37.9 °F 35.5 °F 26.1 °F 62% 30.06 in 10.0 mi Variable 3.5 mph - N/A   Clear
10:53 AM 41.0 °F 35.8 °F 26.1 °F 55% 30.02 in 10.0 mi NE 8.1 mph - N/A   Clear
11:53 AM 43.0 °F 41.3 °F 23.0 °F 45% 30.02 in 10.0 mi Variable 3.5 mph - N/A   Clear
12:53 PM 46.0 °F - 25.0 °F 44% 30.01 in 10.0 mi North - - N/A   Clear
1:53 PM 46.9 °F - 24.1 °F 41% 30.00 in 10.0 mi NW 4.6 mph - N/A   Clear
2:53 PM 48.0 °F - 28.0 °F 46% 29.97 in 10.0 mi South 5.8 mph - N/A   Clear
3:53 PM 48.0 °F - 28.9 °F 48% 29.97 in 10.0 mi SSE 11.5 mph - N/A   Clear
4:53 PM 46.0 °F 40.2 °F 30.0 °F 54% 29.96 in 10.0 mi SSE 12.7 mph - N/A   Clear
5:53 PM 43.0 °F 37.2 °F 28.9 °F 58% 29.99 in 10.0 mi SSE 10.4 mph - N/A   Clear
6:53 PM 36.0 °F 31.1 °F 28.9 °F 76% 30.04 in 10.0 mi SE 5.8 mph - N/A   Clear
7:53 PM 34.0 °F 29.8 °F 28.9 °F 82% 30.04 in 10.0 mi WSW 4.6 mph - N/A   Clear
8:53 PM 30.0 °F 24.1 °F 27.0 °F 88% 30.02 in 10.0 mi WSW 5.8 mph - N/A   Clear
9:53 PM 30.0 °F - 28.0 °F 92% 30.02 in 10.0 mi Calm Calm - N/A   Clear
10:53 PM 28.9 °F 23.9 °F 27.0 °F 92% 30.00 in 10.0 mi West 4.6 mph - N/A   Clear
11:53 PM 27.0 °F 21.6 °F 26.1 °F 96% 30.00 in 10.0 mi WSW 4.6 mph - N/A   Clear